Location: Volkssternwarte_EN
(51.3230°N, 7.4010°E)
Time: 01:00:57
(UTC+02:00)

ISS - Pass Details

Date: 25 April 2024
Orbit: 410 x 414 km, 51.6° (Epoch: 19 May)

Event Time Altitude Azimuth Distance (km) Brightness Sun altitude
Exits shadow 04:38:59 14° 177° (S) 1,273 -1.7 -13.3°
Maximum altitude 04:40:34 18° 143° (SE) 1,078 -1.7 -13.1°
Drops below altitude 10° 04:42:55 10° 97° (E) 1,478 -0.4 -12.8°
Sets 04:45:23 0° 78° (ENE) 2,324 1.2 -12.5°
